TimeCST,TemperatureF,Dew PointF,Humidity,Sea Level PressureIn,VisibilityMPH,Wind Direction,Wind SpeedMPH,Gust SpeedMPH,PrecipitationIn,Events,Conditions,WindDirDegrees,DateUTC
12:53 AM,-13.0,-18.9,75,30.21,10.0,SSE,8.1,-,N/A,,Overcast,150,2013-12-30 06:53:00
1:53 AM,-11.9,-18.0,74,30.19,10.0,SSE,5.8,-,N/A,,Overcast,160,2013-12-30 07:53:00
2:53 AM,-11.0,-17.0,75,30.19,10.0,SE,5.8,-,N/A,,Overcast,140,2013-12-30 08:53:00
3:53 AM,-9.9,-16.1,74,30.19,10.0,SSE,5.8,-,N/A,,Overcast,150,2013-12-30 09:53:00
4:53 AM,-9.0,-15.0,75,30.19,3.0,SE,5.8,-,0.00,Snow,Light Snow,140,2013-12-30 10:53:00
5:53 AM,-8.0,-13.0,79,30.22,4.0,NE,3.5,-,0.00,Snow,Light Snow,40,2013-12-30 11:53:00
6:53 AM,-8.0,-14.1,75,30.23,7.0,NE,4.6,-,0.01,Snow,Light Snow,50,2013-12-30 12:53:00
7:53 AM,-8.0,-13.0,79,30.23,7.0,NE,3.5,-,0.00,Snow,Light Snow,50,2013-12-30 13:53:00
8:53 AM,-8.0,-13.0,79,30.26,2.5,North,6.9,-,0.00,Snow,Light Snow,360,2013-12-30 14:53:00
9:26 AM,-7.6,-14.8,71,30.17,3.0,North,6.9,-,0.00,Snow,Light Snow,360,2013-12-30 15:26:00
9:53 AM,-9.0,-14.1,79,30.29,3.0,North,9.2,-,0.00,,Mostly Cloudy,10,2013-12-30 15:53:00
10:53 AM,-7.1,-14.1,72,30.30,10.0,North,12.7,-,N/A,,Mostly Cloudy,360,2013-12-30 16:53:00
11:53 AM,-8.0,-14.1,75,30.31,10.0,North,9.2,-,N/A,,Mostly Cloudy,350,2013-12-30 17:53:00
12:53 PM,-9.0,-15.0,75,30.30,10.0,North,12.7,-,N/A,,Scattered Clouds,350,2013-12-30 18:53:00
1:53 PM,-9.0,-16.1,71,30.32,10.0,NNW,13.8,-,N/A,,Mostly Cloudy,340,2013-12-30 19:53:00
2:53 PM,-9.9,-18.0,68,30.32,10.0,NNW,13.8,-,N/A,,Scattered Clouds,340,2013-12-30 20:53:00
3:53 PM,-11.9,-18.9,71,30.33,10.0,North,10.4,-,N/A,,Scattered Clouds,350,2013-12-30 21:53:00
4:53 PM,-15.0,-20.9,75,30.34,10.0,NNW,4.6,-,N/A,,Scattered Clouds,330,2013-12-30 22:53:00
5:53 PM,-17.0,-23.1,74,30.33,10.0,WNW,3.5,-,N/A,,Partly Cloudy,300,2013-12-30 23:53:00
6:53 PM,-25.1,-29.9,78,30.33,10.0,SW,3.5,-,N/A,,Clear,230,2013-12-31 00:53:00
7:53 PM,-24.0,-29.9,74,30.32,10.0,Calm,Calm,-,N/A,,Clear,0,2013-12-31 01:53:00
8:53 PM,-24.0,-29.0,77,30.31,10.0,SSW,8.1,-,N/A,,Clear,200,2013-12-31 02:53:00
9:53 PM,-23.1,-27.9,78,30.29,10.0,SSW,9.2,-,N/A,,Clear,210,2013-12-31 03:53:00
10:53 PM,-22.0,-27.0,77,30.27,10.0,SSW,5.8,-,N/A,,Clear,210,2013-12-31 04:53:00
11:53 PM,-22.0,-27.0,77,30.29,10.0,SW,3.5,-,N/A,,Clear,220,2013-12-31 05:53:00